ZACUBE-1 (TSHEPISOSAT)

Last updated on Mon Sep 21 2026 00:03:14 GMT+0000 (Coordinated Universal Time)

1 39417U 13066B 26263.43947617 .00003304 00000+0 25399-3 0 9990 2 39417 97.8156 226.2777 0038937 294.1812 65.5344 15.01848178695024
UTC large
Height (km)
Speed (km/s)
/
Latitude / Longitude
Inclination (degrees)
Orbital Period (minutes)
Azimuth
Elevation
Range (km)
Doppler Factor

Next 0 passes for location: London (51.5072 / 0.1276)

No passes found over London.
ZACUBE-1 (TSHEPISOSAT)